Language: 


Des rapports , des résumés tant et plus, au choix de chacun....


Données statistiques de la station
Quotidien Rapport Aout 30, 2017 Unités:  Anglais    Métrique   les deux
« Précédent Jour
Suivant Jour »
Quotidien Hebdomadaire Mensuel Annuel Actuel
  Haut: Bas: Moyen:
Température: 68.9 °F 56.7 °F 64.6 °F
Pt de rosée: 68 °F 57.2 °F 64 °F
Humidité: 98 % 90 % 96 %
Vitesse du vent: 15.2 mph 0 mph 3 mph
Rafales: 24.4 mph - -
Vent:- - WSW
Pression: 29.9 in 29.7 in -
Précipitation: 0.72 in    
Historical Graphs
 
 
Données statistiques pour Aout 30, 2017
Heure Température Point de rosée Pression Vent Vitesse du vent Refales Humidité Pluie (taux horaire)
00:04 68.4 °F 66.2 °F 29.8 in Calm   4.3 mph 90 % 0 in
00:09 68.4 °F 66.2 °F 29.8 in NNE 3.6 mph 4 mph 90 % 0 in
00:14 68.4 °F 66.2 °F 29.8 in Calm   4 mph 90 % 0 in
00:19 68.5 °F 66.2 °F 29.8 in Calm   4 mph 91 % 0 in
00:24 68.5 °F 66.2 °F 29.8 in Calm   2.7 mph 91 % 0 in
00:30 68.5 °F 66.2 °F 29.8 in Calm     91 % 0 in
00:35 68.4 °F 66.2 °F 29.8 in Calm   0.9 mph 91 % 0 in
00:40 68.4 °F 66.2 °F 29.8 in Calm   0.9 mph 91 % 0 in
00:45 68.4 °F 66.2 °F 29.8 in NE 1.3 mph 2.7 mph 91 % 0 in
00:50 68.4 °F 66.2 °F 29.8 in Calm   3.1 mph 91 % 0 in
00:55 68.2 °F 66.2 °F 29.8 in Calm   3.8 mph 91 % 0 in
01:00 68.2 °F 66.2 °F 29.8 in Calm   3.8 mph 91 % 0 in
01:05 68.2 °F 66.2 °F 29.8 in NNE 2.7 mph 2.9 mph 91 % 0 in
01:10 68.2 °F 66.2 °F 29.8 in NNE 2 mph 3.1 mph 91 % 0 in
01:15 68.2 °F 66.2 °F 29.8 in NNW 1.3 mph 3.1 mph 91 % 0 in
01:20 68.2 °F 66.2 °F 29.8 in WNW 1.6 mph 4 mph 91 % 0 in
01:25 68.4 °F 66.2 °F 29.8 in NW 7.6 mph 7.6 mph 92 % 0 in
01:30 68.5 °F 66.2 °F 29.8 in North 2.2 mph 7.6 mph 92 % 0 in
01:35 68.5 °F 66.2 °F 29.8 in NNW 6.3 mph 7.4 mph 93 % 0 in
01:40 68.7 °F 66.2 °F 29.8 in North 6 mph 6.3 mph 92 % 0 in
01:45 68.7 °F 66.2 °F 29.8 in NNE 3.6 mph 6.9 mph 93 % 0 in
01:50 68.7 °F 66.2 °F 29.8 in NE 3.6 mph 6.9 mph 93 % 0 in
01:55 68.5 °F 66.2 °F 29.8 in WNW 1.3 mph 5.6 mph 92 % 0 in
02:00 68.5 °F 66.2 °F 29.8 in NE 3.4 mph 7.2 mph 93 % 0 in
02:05 68.2 °F 66.2 °F 29.8 in NE 1.3 mph 7.2 mph 93 % 0 in
02:10 68.2 °F 66.2 °F 29.8 in North 3.4 mph 6.5 mph 93 % 0 in
02:15 68 °F 66.2 °F 29.8 in NE 5.8 mph 5.8 mph 93 % 0 in
02:20 68 °F 66.2 °F 29.8 in NE 5.6 mph 6.3 mph 93 % 0 in
02:23 68 °F 66.2 °F 29.8 in NE 4.5 mph 6.5 mph 93 % 0 in
02:33 67.8 °F 66.2 °F 29.8 in NNE 2.7 mph 6.5 mph 93 % 0 in
02:38 67.6 °F 66.2 °F 29.8 in ENE 5.4 mph 7.6 mph 93 % 0 in
02:43 67.8 °F 66.2 °F 29.8 in NNE 5.8 mph 7.6 mph 94 % 0 in
02:48 67.8 °F 66.2 °F 29.8 in NE 4.3 mph 7.6 mph 94 % 0 in
02:58 67.6 °F 66.2 °F 29.8 in NE 4.7 mph 6 mph 94 % 0 in
03:03 67.6 °F 66.2 °F 29.7 in NE 4 mph 6 mph 94 % 0 in
03:08 67.6 °F 66.2 °F 29.7 in NE 3.6 mph 5.4 mph 94 % 0 in
03:13 67.6 °F 66.2 °F 29.7 in NNW 2.9 mph 6 mph 94 % 0 in
03:19 68 °F 66.2 °F 29.8 in West 15.2 mph 21.5 mph 94 % 0 in
03:24 68.7 °F 66.2 °F 29.8 in NE 5.4 mph 24.4 mph 93 % 0 in
03:29 68.9 °F 68 °F 29.8 in West 3.1 mph 24.4 mph 93 % 0 in
03:34 68.9 °F 68 °F 29.8 in ENE 1.6 mph 12.1 mph 93 % 0.01 in
03:39 68.9 °F 68 °F 29.8 in NE 7.8 mph 8.9 mph 93 % 0.05 in
03:44 68.7 °F 66.2 °F 29.8 in WNW 4.3 mph 12.5 mph 93 % 0.08 in
03:49 68 °F 66.2 °F 29.8 in NW 8.7 mph 12.5 mph 95 % 0.08 in
03:54 67.8 °F 66.2 °F 29.8 in NNW 5.4 mph 8.7 mph 95 % 0.1 in
03:59 67.6 °F 66.2 °F 29.8 in North 5.6 mph 8.7 mph 95 % 0.1 in
04:04 67.5 °F 66.2 °F 29.8 in NNW 2.5 mph 6.3 mph 95 % 0.1 in
04:09 67.5 °F 66.2 °F 29.8 in North 2.5 mph 6.3 mph 95 % 0.1 in
04:14 67.5 °F 66.2 °F 29.8 in NE 5.6 mph 7.4 mph 95 % 0.1 in
04:19 67.1 °F 66.2 °F 29.8 in NE 2.5 mph 7.4 mph 95 % 0.1 in
04:24 67.1 °F 66.2 °F 29.8 in ENE 4.3 mph 6 mph 95 % 0.1 in
04:29 66.9 °F 66.2 °F 29.8 in North 4.3 mph 5.6 mph 95 % 0.1 in
04:35 66.9 °F 66.2 °F 29.8 in North 3.6 mph 6.3 mph 95 % 0.12 in
04:40 66.6 °F 66.2 °F 29.8 in NE 5.4 mph 7.8 mph 96 % 0.09 in
04:45 66.6 °F 66.2 °F 29.7 in NNE 2.9 mph 7.8 mph 96 % 0.06 in
04:50 66.4 °F 66.2 °F 29.7 in NE 4.3 mph 7.8 mph 96 % 0.05 in
04:55 66.4 °F 66.2 °F 29.7 in ENE 4.3 mph 6 mph 96 % 0.05 in
05:00 66.4 °F 66.2 °F 29.7 in East 3.6 mph 6 mph 96 % 0.05 in
05:05 66.4 °F 66.2 °F 29.7 in Calm   6 mph 96 % 0.05 in
05:10 66.4 °F 66.2 °F 29.7 in NE 4.7 mph 6.5 mph 96 % 0.05 in
05:15 66.4 °F 66.2 °F 29.7 in NNW 0.9 mph 6.5 mph 96 % 0.05 in
05:20 66.4 °F 66.2 °F 29.7 in Calm   4.3 mph 96 % 0.05 in
05:25 66.4 °F 66.2 °F 29.7 in Calm   2.9 mph 96 % 0.05 in
05:30 66.4 °F 66.2 °F 29.7 in Calm     96 % 0.04 in
05:35 66.4 °F 66.2 °F 29.7 in Calm     96 % 0.01 in
05:40 66.4 °F 66.2 °F 29.7 in Calm     96 % 0 in
05:45 66.6 °F 66.2 °F 29.8 in Calm     96 % 0 in
05:55 66.6 °F 66.2 °F 29.8 in Calm     96 % 0.01 in
06:00 66.6 °F 66.2 °F 29.7 in Calm     96 % 0.01 in
06:05 66.4 °F 66.2 °F 29.7 in Calm     96 % 0.01 in
06:10 66.4 °F 66.2 °F 29.7 in Calm     96 % 0.01 in
06:15 66.4 °F 66.2 °F 29.7 in Calm     96 % 0.01 in
06:20 66.4 °F 66.2 °F 29.7 in Calm     96 % 0.01 in
06:25 66.4 °F 66.2 °F 29.7 in Calm     96 % 0.01 in
06:30 66.4 °F 66.2 °F 29.7 in Calm     96 % 0.01 in
06:40 66.6 °F 66.2 °F 29.7 in Calm     96 % 0.01 in
06:45 66.6 °F 66.2 °F 29.7 in Calm     96 % 0.01 in
06:50 66.6 °F 66.2 °F 29.7 in Calm     96 % 0.01 in
06:55 66.6 °F 66.2 °F 29.7 in Calm     96 % 0 in
07:00 66.6 °F 66.2 °F 29.8 in Calm     96 % 0.01 in
07:05 66.6 °F 66.2 °F 29.8 in Calm     96 % 0.01 in
07:11 66.6 °F 66.2 °F 29.8 in Calm     96 % 0.01 in
07:16 66.6 °F 66.2 °F 29.8 in Calm     96 % 0.01 in
07:21 66.6 °F 66.2 °F 29.8 in Calm     96 % 0.02 in
07:26 66.6 °F 66.2 °F 29.8 in Calm     96 % 0.02 in
07:31 66.6 °F 66.2 °F 29.8 in Calm     96 % 0.03 in
07:36 66.6 °F 66.2 °F 29.8 in Calm     96 % 0.03 in
07:41 66.6 °F 66.2 °F 29.8 in Calm     96 % 0.05 in
07:46 66.6 °F 66.2 °F 29.8 in Calm     96 % 0.05 in
07:51 66.6 °F 66.2 °F 29.8 in Calm     96 % 0.07 in
07:56 66.6 °F 66.2 °F 29.8 in Calm     96 % 0.06 in
08:01 66.6 °F 66.2 °F 29.7 in Calm     96 % 0.06 in
08:06 66.7 °F 66.2 °F 29.7 in Calm     96 % 0.07 in
08:11 66.7 °F 66.2 °F 29.7 in Calm     96 % 0.07 in
08:16 66.9 °F 66.2 °F 29.8 in Calm     97 % 0.07 in
08:21 67.1 °F 66.2 °F 29.8 in Calm     97 % 0.06 in
08:22 67.1 °F 66.2 °F 29.8 in Calm     97 % 0.06 in
08:27 67.3 °F 66.2 °F 29.8 in Calm     97 % 0.05 in
08:32 67.3 °F 66.2 °F 29.8 in Calm     97 % 0.05 in
08:37 67.3 °F 66.2 °F 29.8 in Calm     97 % 0.05 in
08:41 67.3 °F 66.2 °F 29.8 in Calm     97 % 0.04 in
08:46 67.3 °F 66.2 °F 29.8 in Calm     97 % 0.03 in
08:51 67.5 °F 66.2 °F 29.8 in Calm     96 % 0.01 in
08:56 67.5 °F 66.2 °F 29.8 in Calm     96 % 0.02 in
09:04 67.3 °F 66.2 °F 29.8 in Calm     96 % 0.01 in
09:09 67.3 °F 66.2 °F 29.8 in Calm     96 % 0.02 in
09:14 67.3 °F 66.2 °F 29.8 in Calm     96 % 0.02 in
09:19 67.5 °F 66.2 °F 29.7 in Calm     97 % 0.03 in
09:24 67.6 °F 66.2 °F 29.7 in Calm     97 % 0.03 in
09:29 67.8 °F 68 °F 29.7 in Calm     97 % 0.03 in
09:34 67.6 °F 66.2 °F 29.8 in Calm     96 % 0.03 in
09:39 67.6 °F 66.2 °F 29.8 in Calm     96 % 0.03 in
09:44 67.6 °F 66.2 °F 29.8 in Calm     96 % 0.03 in
09:49 67.6 °F 66.2 °F 29.8 in Calm     96 % 0.03 in
09:54 67.6 °F 66.2 °F 29.8 in Calm     96 % 0.03 in
09:59 67.8 °F 68 °F 29.8 in Calm     96 % 0.02 in
10:04 68 °F 68 °F 29.8 in Calm     96 % 0.02 in
10:09 68 °F 68 °F 29.8 in Calm     96 % 0.01 in
10:15 68 °F 68 °F 29.8 in Calm     96 % 0.01 in
10:20 68 °F 68 °F 29.8 in Calm     96 % 0 in
10:25 68 °F 68 °F 29.8 in West 5.6 mph 5.6 mph 96 % 0 in
10:30 68 °F 68 °F 29.8 in WSW 3.8 mph 6 mph 96 % 0 in
10:35 67.8 °F 68 °F 29.8 in WSW 2.5 mph 6 mph 96 % 0 in
10:40 67.8 °F 68 °F 29.8 in WSW 2.5 mph 6 mph 96 % 0 in
10:45 67.8 °F 68 °F 29.8 in West 2.9 mph 2.9 mph 96 % 0 in
10:50 67.8 °F 68 °F 29.8 in WSW 5.4 mph 5.4 mph 96 % 0 in
10:55 67.8 °F 68 °F 29.8 in WSW 5.4 mph 5.4 mph 96 % 0 in
11:00 67.8 °F 68 °F 29.8 in WNW 1.3 mph 2.9 mph 96 % 0 in
11:05 67.1 °F 66.2 °F 29.8 in NW 2 mph 2.9 mph 96 % 0 in
11:10 67.1 °F 66.2 °F 29.8 in North 3.8 mph 3.8 mph 96 % 0 in
11:15 66.7 °F 66.2 °F 29.8 in WNW 1.3 mph 3.8 mph 96 % 0 in
11:20 66.7 °F 66.2 °F 29.8 in WNW 1.3 mph 3.8 mph 96 % 0 in
11:25 66.7 °F 66.2 °F 29.8 in West 3.1 mph 3.1 mph 96 % 0 in
11:30 66.7 °F 66.2 °F 29.8 in WNW 2 mph 3.1 mph 96 % 0 in
11:35 66.7 °F 66.2 °F 29.8 in Calm   2 mph 96 % 0 in
11:41 66.7 °F 66.2 °F 29.8 in North 2.7 mph 2.7 mph 96 % 0.01 in
11:46 66.7 °F 66.2 °F 29.8 in Calm   2.7 mph 96 % 0.01 in
11:51 66.7 °F 66.2 °F 29.8 in Calm     97 % 0.01 in
11:56 66.9 °F 66.2 °F 29.8 in Calm     97 % 0.01 in
11:57 66.9 °F 66.2 °F 29.8 in Calm     97 % 0.01 in
12:02 66.7 °F 66.2 °F 29.8 in North 2 mph 2 mph 96 % 0.01 in
12:07 66.6 °F 66.2 °F 29.8 in SSW 3.8 mph 3.8 mph 96 % 0.01 in
12:12 66.6 °F 66.2 °F 29.8 in North 3.6 mph 3.8 mph 96 % 0.01 in
12:17 66.6 °F 66.2 °F 29.8 in North 2.9 mph 3.6 mph 96 % 0.01 in
12:22 67.3 °F 66.2 °F 29.8 in NNW 2.5 mph 3.6 mph 97 % 0.01 in
12:27 67.6 °F 66.2 °F 29.8 in WNW 2.9 mph 4.3 mph 97 % 0.01 in
12:32 67.6 °F 66.2 °F 29.8 in North 2.9 mph 5.4 mph 97 % 0.01 in
12:37 68.2 °F 68 °F 29.8 in WNW 1.3 mph 5.4 mph 96 % 0 in
12:38 68.2 °F 68 °F 29.8 in WNW 1.3 mph 5.4 mph 96 % 0 in
12:43 68.2 °F 68 °F 29.8 in NNE 1.3 mph 7.2 mph 96 % 0 in
12:48 68.4 °F 68 °F 29.8 in Calm   7.2 mph 96 % 0 in
12:53 68.5 °F 68 °F 29.8 in North 3.4 mph 4.9 mph 96 % 0 in
12:58 68.2 °F 66.2 °F 29.8 in NNW 3.4 mph 4.3 mph 95 % 0 in
13:03 68 °F 66.2 °F 29.8 in NNW 2.2 mph 4.7 mph 95 % 0.01 in
13:08 67.8 °F 66.2 °F 29.8 in WNW 4 mph 5.6 mph 95 % 0.01 in
13:13 67.6 °F 66.2 °F 29.8 in Calm   5.6 mph 95 % 0.01 in
13:18 67.5 °F 66.2 °F 29.8 in NW 1.6 mph 4.9 mph 95 % 0.01 in
13:23 67.3 °F 66.2 °F 29.8 in Calm   6.5 mph 95 % 0.01 in
13:28 66.9 °F 66.2 °F 29.8 in NNW 4.9 mph 6.5 mph 95 % 0.01 in
13:33 66.9 °F 66.2 °F 29.8 in NNW 2.5 mph 7.2 mph 95 % 0.01 in
13:38 66.9 °F 66.2 °F 29.8 in North 3.8 mph 7.2 mph 95 % 0.01 in
13:43 66.9 °F 66.2 °F 29.8 in NNW 3.8 mph 6.5 mph 96 % 0.01 in
13:49 66.7 °F 66.2 °F 29.8 in North 3.8 mph 6 mph 96 % 0.01 in
13:54 66.7 °F 66.2 °F 29.8 in NNE 3.1 mph 5.6 mph 96 % 0.01 in
13:59 66.7 °F 66.2 °F 29.8 in NNW 3.8 mph 5.4 mph 96 % 0.01 in
14:04 66.6 °F 66.2 °F 29.8 in North 4.3 mph 6 mph 96 % 0 in
14:09 66.4 °F 66.2 °F 29.8 in NNW 0.9 mph 6 mph 96 % 0 in
14:14 66.4 °F 66.2 °F 29.8 in NNW 4.9 mph 4.9 mph 96 % 0 in
14:19 66.4 °F 66.2 °F 29.8 in NW 2.5 mph 4.9 mph 96 % 0 in
14:20 66.4 °F 66.2 °F 29.8 in NNE 3.1 mph 4.9 mph 96 % 0 in
14:25 66.2 °F 66.2 °F 29.8 in NNW 3.1 mph 4 mph 96 % 0 in
14:30 66.2 °F 66.2 °F 29.8 in North 7.4 mph 7.4 mph 96 % 0 in
14:35 66.2 °F 66.2 °F 29.8 in WNW 2.7 mph 7.4 mph 96 % 0 in
14:40 66.2 °F 66.2 °F 29.8 in North 1.1 mph 5.6 mph 96 % 0 in
14:45 66.2 °F 66.2 °F 29.8 in NW 3.6 mph 5.6 mph 96 % 0 in
14:50 66.2 °F 66.2 °F 29.8 in Calm   5.4 mph 96 % 0 in
14:55 66 °F 66.2 °F 29.8 in North 2.7 mph 5.4 mph 96 % 0 in
15:00 65.8 °F 64.4 °F 29.8 in NNE 2.9 mph 5.4 mph 96 % 0 in
15:05 65.8 °F 64.4 °F 29.8 in North 3.1 mph 5.6 mph 96 % 0.01 in
15:10 65.7 °F 64.4 °F 29.8 in Calm   5.6 mph 96 % 0.02 in
15:15 65.7 °F 64.4 °F 29.8 in NNW 0.9 mph 4.3 mph 96 % 0.1 in
15:20 65.5 °F 64.4 °F 29.8 in Calm   4.5 mph 96 % 0.11 in
15:25 65.5 °F 64.4 °F 29.8 in Calm   4.5 mph 96 % 0.13 in
15:30 65.5 °F 64.4 °F 29.8 in WNW 2.7 mph 3.8 mph 96 % 0.15 in
15:35 65.5 °F 64.4 °F 29.8 in Calm   3.8 mph 97 % 0.17 in
15:40 65.5 °F 64.4 °F 29.8 in WNW 2.2 mph 5.4 mph 97 % 0.18 in
15:45 65.5 °F 64.4 °F 29.8 in Calm   5.4 mph 97 % 0.2 in
15:50 65.5 °F 64.4 °F 29.8 in NNW 4.3 mph 4.9 mph 97 % 0.21 in
15:55 65.5 °F 64.4 °F 29.8 in WNW 4 mph 4.3 mph 97 % 0.22 in
16:00 65.5 °F 64.4 °F 29.8 in WNW 4 mph 4.3 mph 97 % 0.22 in
16:05 65.3 °F 64.4 °F 29.8 in WNW 4 mph 4 mph 97 % 0.21 in
16:10 65.1 °F 64.4 °F 29.8 in North 7.6 mph 7.6 mph 96 % 0.2 in
16:15 64.9 °F 64.4 °F 29.8 in WNW 3.6 mph 7.6 mph 96 % 0.13 in
16:20 64.8 °F 64.4 °F 29.8 in NNW 4.9 mph 7.6 mph 96 % 0.12 in
16:25 64.8 °F 64.4 °F 29.8 in NNW 7.6 mph 8.7 mph 96 % 0.1 in
16:30 64.6 °F 64.4 °F 29.8 in NE 2 mph 8.7 mph 96 % 0.09 in
16:35 64.2 °F 64.4 °F 29.8 in NNW 9.2 mph 9.2 mph 96 % 0.07 in
16:40 63.9 °F 62.6 °F 29.8 in NNW 6 mph 9.2 mph 96 % 0.06 in
16:46 63.9 °F 62.6 °F 29.8 in NW 5.8 mph 9.2 mph 97 % 0.06 in
16:51 63.5 °F 62.6 °F 29.8 in North 5.8 mph 10.3 mph 96 % 0.05 in
16:56 63.1 °F 62.6 °F 29.8 in WNW 7.8 mph 10.3 mph 96 % 0.03 in
17:01 62.8 °F 62.6 °F 29.8 in NW 7.8 mph 10.3 mph 96 % 0.03 in
17:06 62.8 °F 62.6 °F 29.8 in NNE 3.4 mph 9.2 mph 96 % 0.03 in
17:16 62.4 °F 62.6 °F 29.8 in NNW 6.5 mph 10.5 mph 97 % 0.03 in
17:21 62.2 °F 60.8 °F 29.8 in NW 10.7 mph 10.7 mph 97 % 0.05 in
17:26 62.1 °F 60.8 °F 29.8 in North 6 mph 12.3 mph 97 % 0.05 in
17:31 62.1 °F 60.8 °F 29.8 in NNW 10.3 mph 12.3 mph 97 % 0.04 in
17:33 61.9 °F 60.8 °F 29.8 in North 9.2 mph 15.9 mph 97 % 0.04 in
17:38 61.7 °F 60.8 °F 29.8 in NNE 13.2 mph 15.9 mph 97 % 0.04 in
17:43 61.5 °F 60.8 °F 29.8 in North 10.3 mph 19.7 mph 97 % 0.04 in
17:48 61.3 °F 60.8 °F 29.8 in North 6 mph 19.7 mph 97 % 0.03 in
17:53 61.2 °F 60.8 °F 29.8 in North 7.6 mph 12.3 mph 97 % 0.03 in
17:58 61.2 °F 60.8 °F 29.8 in NNE 5.6 mph 12.1 mph 97 % 0.03 in
18:03 61 °F 60.8 °F 29.8 in NE 7.6 mph 12.1 mph 97 % 0.03 in
18:08 60.6 °F 60.8 °F 29.8 in North 8.5 mph 12.5 mph 97 % 0.03 in
18:13 60.4 °F 59 °F 29.8 in North 8.5 mph 14.5 mph 97 % 0.03 in
18:18 60.3 °F 59 °F 29.8 in NNW 7.8 mph 14.5 mph 97 % 0.04 in
18:23 60.1 °F 59 °F 29.8 in North 10.1 mph 14.5 mph 97 % 0.02 in
18:28 59.9 °F 59 °F 29.8 in NNW 4.9 mph 17 mph 97 % 0.02 in
18:33 59.9 °F 59 °F 29.8 in NNW 8.1 mph 17 mph 97 % 0.02 in
18:38 59.7 °F 59 °F 29.8 in North 7.6 mph 19.7 mph 97 % 0.02 in
18:43 59.5 °F 59 °F 29.8 in North 3.6 mph 19.7 mph 97 % 0.02 in
18:48 59.4 °F 59 °F 29.8 in NNW 7.4 mph 15.9 mph 97 % 0.02 in
18:53 59.4 °F 59 °F 29.8 in North 7.6 mph 12.1 mph 97 % 0.02 in
18:58 59.2 °F 59 °F 29.8 in North 3.6 mph 13 mph 97 % 0.02 in
19:03 59.2 °F 59 °F 29.8 in North 5.4 mph 13 mph 97 % 0.02 in
19:08 59 °F 59 °F 29.8 in NNW 9.8 mph 13 mph 97 % 0.01 in
19:13 59 °F 59 °F 29.8 in NNW 5.6 mph 13 mph 97 % 0.01 in
19:18 59 °F 59 °F 29.8 in North 5.8 mph 9.8 mph 98 % 0.01 in
19:23 58.8 °F 59 °F 29.8 in North 5.6 mph 9.8 mph 98 % 0.01 in
19:28 58.8 °F 59 °F 29.8 in NNE 9.8 mph 9.8 mph 98 % 0.01 in
19:33 58.8 °F 59 °F 29.8 in NNW 4.5 mph 9.8 mph 98 % 0.01 in
19:38 58.8 °F 59 °F 29.8 in WNW 3.8 mph 10.1 mph 98 % 0.02 in
19:44 58.8 °F 59 °F 29.8 in NNW 3.6 mph 10.1 mph 98 % 0.02 in
19:49 58.6 °F 59 °F 29.9 in Calm   6.5 mph 98 % 0.02 in
19:54 58.5 °F 59 °F 29.9 in NNW 9.6 mph 10.7 mph 98 % 0.02 in
19:59 58.5 °F 59 °F 29.9 in NNW 6.3 mph 10.7 mph 98 % 0.03 in
20:04 58.3 °F 59 °F 29.9 in North 5.6 mph 9.6 mph 98 % 0.03 in
20:09 58.3 °F 59 °F 29.9 in North 2.7 mph 8.7 mph 98 % 0.03 in
20:14 58.1 °F 59 °F 29.9 in NNW 6.3 mph 9.8 mph 98 % 0.03 in
20:19 58.1 °F 59 °F 29.9 in North 1.3 mph 9.8 mph 98 % 0.02 in
20:24 58.1 °F 59 °F 29.9 in North 6.5 mph 7.6 mph 98 % 0.02 in
20:29 58.1 °F 59 °F 29.9 in NNE 4.3 mph 7.8 mph 98 % 0.02 in
20:34 58.1 °F 59 °F 29.9 in NNE 5.4 mph 8.7 mph 98 % 0.02 in
20:39 58.1 °F 59 °F 29.9 in North 5.6 mph 8.7 mph 98 % 0.01 in
20:44 58.1 °F 59 °F 29.9 in NNE 3.6 mph 8.1 mph 98 % 0.01 in
20:49 58.1 °F 59 °F 29.9 in North 3.4 mph 7.6 mph 98 % 0.01 in
20:54 58.1 °F 59 °F 29.9 in North 2.7 mph 7.6 mph 98 % 0.01 in
20:59 58.1 °F 59 °F 29.9 in NE 3.4 mph 6.3 mph 98 % 0 in
21:04 58.1 °F 59 °F 29.9 in NNE 4.9 mph 6.3 mph 98 % 0 in
21:09 58.1 °F 59 °F 29.9 in West 4 mph 6.5 mph 98 % 0 in
21:14 58.1 °F 59 °F 29.9 in North 3.4 mph 6.5 mph 98 % 0.01 in
21:16 58.1 °F 59 °F 29.9 in North 6.9 mph 6.9 mph 98 % 0.01 in
21:22 58.1 °F 59 °F 29.9 in NNE 1.6 mph 6.9 mph 98 % 0.01 in
21:27 57.9 °F 57.2 °F 29.9 in North 7.4 mph 7.4 mph 98 % 0.01 in
21:37 57.7 °F 57.2 °F 29.9 in North 5.6 mph 7.4 mph 98 % 0.01 in
21:42 57.6 °F 57.2 °F 29.9 in NNW 5.8 mph 7.6 mph 98 % 0.01 in
21:47 57.6 °F 57.2 °F 29.9 in NW 5.4 mph 7.6 mph 98 % 0.01 in
21:57 57.6 °F 57.2 °F 29.9 in Calm   5.4 mph 98 % 0.01 in
22:02 57.4 °F 57.2 °F 29.8 in North 5.6 mph 5.6 mph 98 % 0.01 in
22:07 57.4 °F 57.2 °F 29.8 in Calm   5.6 mph 98 % 0.01 in
22:12 57.4 °F 57.2 °F 29.8 in Calm   5.6 mph 98 % 0.01 in
22:17 57.4 °F 57.2 °F 29.9 in Calm   3.6 mph 98 % 0 in
22:22 57.4 °F 57.2 °F 29.9 in NNE 2.5 mph 3.6 mph 98 % 0.01 in
22:27 57.4 °F 57.2 °F 29.9 in WNW 2 mph 2.7 mph 98 % 0.01 in
22:32 57.4 °F 57.2 °F 29.9 in NNW 2.9 mph 2.9 mph 98 % 0.01 in
22:37 57.4 °F 57.2 °F 29.9 in NNW 0.9 mph 2.9 mph 98 % 0.01 in
22:42 57.4 °F 57.2 °F 29.9 in North 3.8 mph 4.9 mph 98 % 0.01 in
22:47 57.2 °F 57.2 °F 29.9 in Calm   4.9 mph 98 % 0.01 in
22:52 57.2 °F 57.2 °F 29.9 in North 1.6 mph 4.9 mph 98 % 0.01 in
22:57 57.2 °F 57.2 °F 29.9 in Calm   4.9 mph 98 % 0.01 in
23:02 57.2 °F 57.2 °F 29.9 in NW 2.5 mph 4.9 mph 98 % 0.01 in
23:03 57.2 °F 57.2 °F 29.9 in Calm   4.9 mph 98 % 0.01 in
23:08 57.2 °F 57.2 °F 29.9 in Calm   2.9 mph 98 % 0.01 in
23:13 57.2 °F 57.2 °F 29.9 in Calm   3.1 mph 98 % 0.01 in
23:18 57.2 °F 57.2 °F 29.9 in WNW 1.3 mph 4 mph 98 % 0.01 in
23:23 57.2 °F 57.2 °F 29.9 in Calm   5.6 mph 98 % 0 in
23:33 57.2 °F 57.2 °F 29.9 in NNW 2.5 mph 5.6 mph 98 % 0 in
23:38 57.2 °F 57.2 °F 29.9 in WNW 3.6 mph 4.9 mph 98 % 0 in
23:43 57.2 °F 57.2 °F 29.9 in North 8.1 mph 8.1 mph 98 % 0.02 in
23:48 57 °F 57.2 °F 29.9 in NW 4 mph 8.5 mph 98 % 0.03 in
23:53 56.8 °F 57.2 °F 29.9 in West 6.5 mph 9.6 mph 98 % 0.05 in
23:58 56.7 °F 57.2 °F 29.9 in WNW 5.4 mph 9.6 mph 98 % 0.05 in
Le Gheer Warneton
Courtoisie de Weather Underground - 2.25 mb

Mise a jour : 16-12-17 12:12:11
Généré par Cumulus 1.9.4 (1099)